Location: Unspecified
(42.9300°N, 71.1866°W)
Time: 18:03:20
(UTC-04:00)

Envisat - Visible Passes

Search period start: 25 July 2016 00:00
Search period end: 04 August 2016 00:00
Orbit: 764 x 766 km, 98.3° (Epoch: 25 July)

Date Brightness Start Highest point End Pass type
(mag) Time Alt. Az. Time Alt. Az. Time Alt. Az.
25 Jul 3.4 20:41:20 10° SE 20:46:10 47° ENE 20:51:02 10° N visible
25 Jul 5.1 22:21:34 10° SW 22:25:24 21° W 22:29:17 10° NW visible
26 Jul 3.9 21:43:37 10° S 21:48:29 46° W 21:53:23 10° NNW visible
27 Jul 3.0 21:06:41 10° SSE 21:11:46 81° ENE 21:16:52 10° N visible
27 Jul 5.6 22:49:26 10° WSW 22:51:23 12° W 22:53:20 10° WNW visible
28 Jul 4.8 22:10:03 10° SSW 22:14:19 27° W 22:18:36 10° NW visible
29 Jul 3.5 21:32:27 10° S 21:37:26 59° W 21:42:28 10° NNW visible
30 Jul 3.1 20:55:46 10° SSE 21:00:46 65° ENE 21:05:49 10° N visible
30 Jul 5.4 22:37:15 10° SW 22:40:14 16° W 22:43:13 10° NW visible
31 Jul 4.4 21:58:39 10° SSW 22:03:14 33° W 22:07:50 10° NNW visible
01 Aug 3.2 21:21:21 10° S 21:26:24 74° WSW 21:31:31 10° NNW visible
02 Aug 3.3 20:44:54 10° SE 20:49:48 51° ENE 20:54:44 10° N visible
02 Aug 5.2 22:25:28 10° SW 22:29:06 20° W 22:32:45 10° NW visible
03 Aug 4.0 21:47:22 10° S 21:52:09 42° W 21:56:59 10° NNW visible
